Regional Weather Roundup
Issued by NWS Charleston, SC

Current Version | Previous Version | Graphics & Text | Print | Product List | Glossary On
Versions: 1 2 3 4 5 6 7 8 9 10 11 12 13 14 15 16 17 18 19 20 21 22 23 24 25 26 27 28 29 30 31 32 33 34 35 36 37 38 39 40 41 42 43 44 45 46 47 48 49 50
000
ASUS42 KCHS 171110
RWRCHS
REGIONAL WEATHER ROUNDUP
NATIONAL WEATHER SERVICE CHARLESTON SC
700 AM EDT THU APR 17 2014

NOTE: "FAIR" INDICATES FEW OR NO CLOUDS BELOW 12,000 FEET WITH NO
SIGNIFICANT WEATHER AND/OR OBSTRUCTIONS TO VISIBILITY.

NOT ALL STATIONS ARE QUALITY CONTROLLED BY THE NATIONAL
WEATHER SERVICE. USE DATA WITH CAUTION...ESPECIALLY
DEWPOINT OBSERVATIONS.

SCZ027-030-031-034>040-042>050-171200-
...SOUTH CAROLINA...

CITY           SKY/WX    TMP DP  RH WIND       PRES   REMARKS
N CHARLESTON   PTCLDY    43  31  62 NE10      30.40R
WATERFRONT PRK   N/A     48 N/A N/A N18G24      N/A
FORT JOHNSON   NOT AVBL
MOUNT PLEASANT FAIR     N/A N/A N/A N8        30.39R
JOHNS ISLAND   SUNNY     45  37  76 N10G16    30.38R
PINOPOLIS        N/A     45  36  70 NE15      30.33R
MONCKS CORNER  FAIR      43  36  75 NE7       30.40R
SUMMERVILLE    FAIR      41  34  75 N6        30.40R
BEAUFORT MCAS  MOCLDY    46  34  62 E13       30.38R
BEAUFORT ARPT  FAIR      46  41  81 NE16G22   30.36R
HILTON HEAD IS CLEAR     48  43  81 N9G18     30.36R
GEORGETOWN     NOT AVBL
WALTERBORO     MOSUNNY   43  34  70 NE7       30.41R
ORANGEBURG     PTCLDY    41  30  65 NE12      30.42S
BARNWELL       MIX PCPN  45  34  65 NE9       30.42R
AIKEN          FAIR      37  36  93 CALM      30.45R
MANNING        FAIR      39  39 100 N8        30.43R WCI  34
KINGSTREE      NOT AVBL
COLUMBIA       MOCLDY    43  29  57 NE9G18    30.44R
SUMTER         PTCLDY    36  32  85 NE8       30.45R WCI  30
FLORENCE       CLEAR     38  30  73 NE8       30.46R WCI  32
MYRTLE BEACH   CLEAR     48  32  53 N12       30.41R
N MYRTLE BEACH CLEAR     39  32  76 NE12      30.42R WCI  32

$$

GAZ063-065-086>088-099>101-113>116-118-119-134-136>141-150-171200-
...GEORGIA...

CITY           SKY/WX    TMP DP  RH WIND       PRES   REMARKS
SAVANNAH ARPT  MOCLDY    48  41  76 N10       30.36R
HUNTER AAF     CLOUDY    51  43  75 NE9       30.32R
FORT STEWART   CLOUDY    48  44  85 NE13      30.32S
STATESBORO     NOT AVBL
SYLVANIA       PTSUNNY   47  39  74 NE9       30.39R
CLAXTON        PTSUNNY   50  43  76 NE12      30.36R
THOMSON        PTCLDY    36  36 100 NE5       30.46R WCI  32
AUGUSTA-BUSH   CLOUDY    41  36  82 N6        30.42R
AUGUSTA-DANIEL PTCLDY    43  34  70 NE9       30.42R
SWAINSBORO     CLOUDY    45  41  87 NE5       30.38R
VIDALIA        CLOUDY    48  41  76 NE12      30.35R
ALMA           CLOUDY    50  42  74 VRB3      30.31R
WAYCROSS       NOT AVBL
JESUP          CLOUDY    50  45  81 NE9       30.31R
BRUNSWICK      CLOUDY    55  50  82 NE12      30.29R
SAINT SIMONS   LGT RAIN  60  54  80 NE13G22   30.27S

$$

SCZ027-028-034-036>038-045-046-048>050-GAZ119-141-171200-
...LAKE AND SUPPLEMENTAL COASTAL OBSERVATIONS...

STATION/POSITION TIME  TEMP    WIND        PRES    WAVE   SWELL
                       AIR SEA DIR/SP/G            HT/PER HT/PER/DIR
                 (UTC) (F)     (DEG/KT/KT) (MB)    (FT/S) (FT/S/D)
UPR LAKE MARION  NOT AVBL
WINYAH BAY       1000   42      20/  7     1028.0S
LAKE MURRAY      1000   41      40/  5/  8 1030.1R
ACE BASIN NERRS  1000   45      30/  5     1027.0S
FORT PULASKI     1100   52 60   20/ 12/ 17 1027.6R
SAPELO ISLAND    1000   58      40/ 12     1025.0R

$$

ANZ086-088-AMZ330-350-352-354-374-454-470-171200-
...C-MAN AND BUOY OBSERVATIONS...

STATION/POSITION TIME  TEMP    WIND        PRES    WAVE   SWELL
                       AIR SEA DIR/SP/G            HT/PER HT/PER/DIR
                 (UTC) (F)     (DEG/KT/KT) (MB)    (FT/S) (FT/S/D)
FOLLY BEACH CMAN 1000   49      20/ 17/ 20 1028.1R
BUOY 41004       NOT AVBL
BUOY 41008       1100   61 63   50/ 23/ 27 1024.6R   7/ 7   3/ 80/11
5E ST. MARYS GA  1100      64                N/A     8/ 7   2/ 70/12
FRYING PAN BUOY  1100   54 62   50/ 23/ 29 1027.0F   8/ 6   3/100/10
BUOY 41025       NOT AVBL
CAPE LOOKOUT NC  1100   48      10/ 20/ 23 1029.9R
BUOY 41002       NOT AVBL
BUOY 41010       1100   70 76   50/ 21/ 23 1021.0R  10/ 9   5/ 20/12
BUOY 41012       NOT AVBL
ST AUGUSTINE FL  1100   62     330/  3/  4 1023.2R


$$


USA.gov is the U.S. government's official web portal to all federal, state and local government web resources and services.